Location: Amanico Ergina Village
(37.7824°N, 122.4366°W)
Time: 07:52:41
(UTC+00:00)

Cosmos 1484 Rocket - Pass Details

Date: 29 October 2020
Orbit: 504 x 560 km, 97.4° (Epoch: 02 December)

Event Time Altitude Azimuth Distance (km) Brightness Sun altitude
Rises 13:15:33 0° 2° (N) 2,681 6.3 -15.8°
Reaches altitude 10° 13:17:48 10° 353° (N) 1,776 5.3 -15.3°
Maximum altitude 13:21:18 35° 287° (WNW) 858 3.3 -14.6°
Drops below altitude 10° 13:24:43 10° 221° (SW) 1,736 5.0 -14.0°
Sets 13:26:54 0° 212° (SSW) 2,610 6.0 -13.5°
